Regional Weather Roundup
Issued by NWS

Home | Current Version | Previous Version | Text Only | Print | Product List | Glossary On
Versions: 1 2 3 4 5 6 7 8 9 10 11 12 13 14 15 16 17 18 19 20 21 22 23 24 25 26 27
000
ASUS46 KSEW 281910
RWRWA

WASHINGTON REGIONAL WEATHER ROUNDUP
NATIONAL WEATHER SERVICE SEATTLE WA
1200 PM PDT THU APR 28 2016

NOTE:"FAIR" INDICATES FEW OR NO CLOUDS BELOW 12,000 FEET WITH NO
SIGNIFICANT WEATHER AND/OR OBSTRUCTIONS TO VISIBILITY.

WAZ505-507>509-282000-
SEATTLE, TACOMA, EVERETT, AND VICINITY

CITY           SKY/WX    TMP DP  RH WIND       PRES   REMARKS
EVERETT        CLOUDY    57  46  66 CALM      30.10F
BOEING FIELD   MOSUNNY   59  49  69 SW7       30.10F
RENTON         CLOUDY    58  45  62 VRB5      30.10F
SEATAC AIRPORT PTSUNNY   58  47  66 S8        30.11F
JBLM-MCCHORD   SUNNY     58  45  61 SW9       30.10F
PUYALLUP       PTSUNNY   59  46  63 CALM      30.10F
BREMERTON      PTSUNNY   57  46  67 S7        30.13S
JBLM-FT LEWIS  MOSUNNY   59  46  61 VRB3      30.10S
TACOMA NARROWS MOSUNNY   56  45  66 SW7       30.12S
$$

WAZ001-503-506-510-514-515-282000-
NORTH INTERIOR

CITY           SKY/WX    TMP DP  RH WIND       PRES   REMARKS
BELLINGHAM     CLOUDY    57  47  69 S9G20     30.08F
FRIDAY HARBOR  PTSUNNY   58  48  69 E7        30.09F
EASTSOUND      PTSUNNY   57  48  72 NE5       30.07F
PORT ANGELES   SUNNY     57  46  66 NW7       30.10F
EDIZ HOOK      FAIR      56  47  70 NW9       30.10F
PORT TOWNSEND  CLOUDY    57  46  67 NE8       30.10F
NAS WHIDBEY    PTSUNNY   55  49  80 W9        30.14F
ARLINGTON      CLOUDY    59  43  55 CALM      30.11F
BURLINGTON     MOSUNNY   59  48  67 S7G13     30.10F
$$

WAZ020-022-039-040-504-511-512-282000-
SOUTHWEST INTERIOR

CITY           SKY/WX    TMP DP  RH WIND       PRES   REMARKS
SHELTON        CLOUDY    57  46  66 SW6       30.09F
OLYMPIA        PTSUNNY   58  44  60 MISG      30.11F
CHEHALIS       CLOUDY    61  46  59 CALM      30.12F
KELSO          CLOUDY    55  43  62 CALM      30.16S
VANCOUVER      PTSUNNY   57  44  62 VRB5      30.13S
SCAPPOOSE, OR  SUNNY     58  47  66 SE3       30.12S
PORTLAND, OR   PTSUNNY   58  44  60 CALM      30.13F
$$

WAZ021-516-517-282000-
WASHINGTON COAST

CITY           SKY/WX    TMP DP  RH WIND       PRES   REMARKS
FORKS          CLOUDY    53  44  71 W6        30.12S
HOQUIAM          N/A    N/A N/A N/A MISG      30.12F
ASTORIA, OR    CLOUDY    56  46  69 N8        30.13S
$$

WAZ019-023-024-040-518-519-282000-
CASCADE MOUNTAINS AND COLUMBIA GORGE

CITY           SKY/WX    TMP DP  RH WIND       PRES   REMARKS
STAMPEDE PASS  CLOUDY    39  36  89 VRB3      30.06R
TROUTDALE, OR  CLOUDY    57  44  62 SW6       30.13S
THE DALLES, OR SUNNY     65  40  39 NW22G28   30.02F
$$

WAZ026-027-041>044-520-521-282000-
EAST SLOPES

CITY           SKY/WX    TMP DP  RH WIND       PRES   REMARKS
OMAK           SUNNY     66  40  38 S8        29.96F
WENATCHEE      SUNNY     65  37  35 NW6       29.97F
ELLENSBURG     SUNNY     65  41  41 NW10      29.98F
YAKIMA         SUNNY     68  38  33 VRB5      29.99S
$$

WAZ028-034-035-282000-
COLUMBIA BASIN

CITY           SKY/WX    TMP DP  RH WIND       PRES   REMARKS
EPHRATA        SUNNY     64  44  48 CALM      29.97F
MOSES LAKE     SUNNY     63  42  46 VRB5      29.98F
PASCO          MOSUNNY   63  40  42 CALM      30.00F
HERMISTON, OR  MOSUNNY   62  41  46 W5        30.01F
$$

WAZ036>038-282000-
NORTHEAST WASHINGTON

CITY           SKY/WX    TMP DP  RH WIND       PRES   REMARKS
SPOKANE GEIGER PTSUNNY   61  32  33 NE12      29.98S
SPOKANE FELTS  MOSUNNY   62  36  37 N5        29.98F
FAIRCHILD AFB  MOSUNNY   60  36  41 VRB6      29.98S
COEURDALENE,ID MOSUNNY   59  36  41 NE8       29.96S
DEER PARK      SUNNY     61  34  36 N12       29.99F
$$

WAZ029>033-282000-
SOUTHEAST WASHINGTON

CITY           SKY/WX    TMP DP  RH WIND       PRES   REMARKS
PULLMAN        PTSUNNY   55  41  59 W8        30.00S
LEWISTON, ID   CLOUDY    61  40  45 W6        29.96F
WALLA WALLA    CLOUDY    58  41  53 SW8       30.01F
PENDLETON, OR  PTSUNNY   58  38  47 W12       30.01F
$$




USA.gov is the U.S. government's official web portal to all federal, state and local government web resources and services.